Location: Beaver Brook Station
(42.3793°N, 71.2203°W)
Time: 01:58:49
(UTC+00:00)

Cosmos 1992 Rocket - Pass Details

Date: 29 October 2020
Orbit: 759 x 765 km, 74.0° (Epoch: 25 November)

Event Time Altitude Azimuth Distance (km) Brightness Sun altitude
Rises 22:30:46 0° 180° (S) 3,204 7.3 -9.7°
Reaches altitude 10° 22:33:13 10° 173° (S) 2,282 6.5 -10.1°
Maximum altitude 22:38:05 43° 103° (ESE) 1,053 4.3 -11.0°
Drops below altitude 10° 22:42:59 10° 33° (NNE) 2,297 6.1 -11.9°
Sets 22:45:27 0° 27° (NNE) 3,227 6.9 -12.4°
